KCDI

Details ICAO KCDI
Name CAMBRIDGE MUNI
Region United States
Timezone America/New_York (UTC-4.0)
Plans Departing 2
Arriving 3
Stats Elevation 799 ft / 244 m (AMSL)
Location 39.975040° -81.577585°
Runways 1
Magnetic Variation 8.138° W
Sunrise 2018-05-27 10:03:34 UTC / 2018-05-27 06:03:34 Local
Sunset 2018-05-28 00:46:17 UTC / 2018-05-27 20:46:17 Local
Advertisement - Login to hide

Runways

ID Width Length Bearing (true) Bearing (mag) Surface Threshold Offset Overrun Length
04 75 ft / 23 m 4,300 ft / 1,311 m 33.02° 41.16° Asphalt 400 ft / 122 m 0 ft / 0 m
22 75 ft / 23 m 4,300 ft / 1,311 m 213.03° 221.17° Asphalt 0 ft / 0 m 0 ft / 0 m

Approach Navaids

Runway Type Ident Frequency Range Bearing (true) Bearing (mag) Slope Elevation
22 Localiser ICZM 109.35 MHz 18 nm / 33 km 213.03° 221.17° - 799 ft / 244 m (AMSL)
22 DME ICZM 109.35 MHz 18 nm / 33 km - - - 799 ft / 244 m (AMSL)

Map

Weather


0- 5 10 15 20 25 30 35+ Temperature / ° C

Clouds and Precipitation
Forecast for 2018-05-28 00:00 UTC. Updated 3 hours ago

Ground ~20,000 ft ~40,000 ft Winds

METAR

KCDI 280215Z AUTO 00000KT 4SM BR CLR 21/21 A2996 RMK AO2 T02080209

TAF

Not found

Frequencies

Recorded 118.52 MHz AWOS 3
Unicom 123.07 MHz CTAF/UNICOM
Warning: Do not use this data for real-world aviation or navigation. No guarantee of current accuracy is given.